Regional Weather Roundup
Issued by NWS

Home | Current Version | Previous Version | Graphics & Text | Print | Product List | Glossary On
Versions: 1 2 3 4 5 6 7 8 9 10 11 12 13 14 15 16 17 18 19 20 21 22 23 24 25 26 27 28 29 30 31 32 33 34 35 36 37 38 39 40 41 42 43 44 45 46 47 48 49 50
000
ASUS43 KBIS 271620
RWRND

NORTH DAKOTA REGIONAL WEATHER ROUNDUP
NATIONAL WEATHER SERVICE BISMARCK ND
1000 AM CST TUE JAN 27 2015

NOTE: "FAIR" INDICATES FEW OR NO CLOUDS BELOW 12,000 FEET WITH NO
SIGNIFICANT WEATHER AND/OR OBSTRUCTIONS TO VISIBILITY.


NDZ001>003-009>011-017-271700-
NORTHWEST NORTH DAKOTA

CITY           SKY/WX    TMP DP  RH WIND       PRES   REMARKS
WILLISTON      MOSUNNY   33  30  88 S5        29.84S
MINOT          MOSUNNY   33  30  88 S6        29.83F
MINOT AFB      MOSUNNY   30  30 100 S6        29.83F
$$

NDZ018>021-031>035-040>046-271700-
SOUTHWEST NORTH DAKOTA

CITY           SKY/WX    TMP DP  RH WIND       PRES   REMARKS
BISMARCK       SUNNY     35  31  85 S6        29.91S
DICKINSON      SUNNY     44  33  65 W8        29.84S
GARRISON         N/A     32  31  96 S6        29.85S
HETTINGER ARPT MOSUNNY   43  34  70 W8        29.89S
$$

NDZ004>008-012>016-024-026-027-054-271700-
NORTHEAST NORTH DAKOTA

CITY           SKY/WX    TMP DP  RH WIND       PRES   REMARKS
GRAND FORKS    FOG       28  26  92 S12       30.04F VSB 1   WCI  18
GRND FRKS AFB  CLOUDY    27  26  95 S12       30.03F FOG     WCI  16
DEVILS LAKE    SUNNY     30  28  93 S13       29.93F
$$

NDZ022-023-025-028>030-036>039-047>053-271700-
SOUTHEAST NORTH DAKOTA

CITY           SKY/WX    TMP DP  RH WIND       PRES   REMARKS
FARGO          CLOUDY    29  27  92 S14       30.08R FOG     WCI  18
JAMESTOWN      MOSUNNY   32  30  92 S12       29.96F
$$



USA.gov is the U.S. government's official web portal to all federal, state and local government web resources and services.